Location: Burera
(21.3780°N, 81.9534°E)
Time: 12:19:42
(UTC+00:00)

Lacrosse 5 rocket - Pass Details

Date: 13 August 2020
Orbit: 464 x 632 km, 57.0° (Epoch: 21 September)

Event Time Altitude Azimuth Distance (km) Brightness Sun altitude
Exits shadow 23:22:19 14° 271° (W) 1,688 3.2 -11.5°
Maximum altitude 23:24:42 21° 310° (NW) 1,396 3.1 -10.9°
Drops below altitude 10° 23:28:08 10° 359° (N) 1,993 4.4 -10.2°
Sets 23:30:57 0° 15° (NNE) 2,912 5.5 -9.6°
